Location: Unspecified
(0.0000°N, 0.0000°E)
Time: 04:08:56
(UTC+02:00)

Cosmos 1892 Rocket - Visible Passes

Search period start: 31 August 2016 00:00
Search period end: 10 September 2016 00:00
Orbit: 607 x 633 km, 82.5° (Epoch: 30 August)

Date Brightness Start Highest point End Pass type
(mag) Time Alt. Az. Time Alt. Az. Time Alt. Az.
31 Aug 4.9 20:20:39 10° NE 20:23:48 19° E 20:26:57 10° SE visible
31 Aug 6.4 21:58:33 10° NW 22:01:24 17° W 22:04:14 10° SW visible
01 Sep 3.9 20:37:13 10° NNE 20:41:26 43° E 20:45:39 10° SSE visible
02 Sep 3.7 20:54:38 10° N 20:59:05 80° W 21:03:31 10° S visible
03 Sep 5.4 21:12:43 10° NNW 21:16:43 33° W 21:20:43 10° SSW visible
04 Sep 6.7 21:31:52 10° WNW 21:34:21 15° W 21:36:51 10° SW visible
06 Sep 4.0 20:27:37 10° N 20:32:02 70° W 20:36:26 10° S visible
07 Sep 5.8 20:45:49 10° NNW 20:49:40 29° W 20:53:31 10° SSW visible
08 Sep 6.8 07:18:16 10° SE 07:20:52 15° E 07:23:26 10° ENE visible
08 Sep 6.9 21:05:15 10° WNW 21:07:18 13° W 21:09:21 10° WSW visible
